Location: Brahman Valley
(40.6513°N, 111.8855°W)
Time: 20:35:38
(UTC+00:00)

N. Korean satellite - Pass Details

Date: 20 April 2021
Orbit: 451 x 500 km, 97.2° (Epoch: 07 May)

Event Time Altitude Azimuth Distance (km) Brightness Sun altitude
Rises 11:58:24 0° 29° (NNE) 2,555 11.2 -8.4°
Reaches altitude 10° 12:01:01 10° 50° (NE) 1,659 10.7 -8.0°
Maximum altitude 12:03:28 17° 93° (E) 1,251 9.7 -7.5°
Drops below altitude 10° 12:05:53 10° 137° (SE) 1,629 9.5 -7.1°
Sets 12:08:25 0° 158° (SSE) 2,488 10.2 -6.7°
